Wind_Speed
15 21 20 22 21 21 19 19 20 20 20 21 20 18 18 17 16 16 15 15 15 15 14 15 14 13 12 10 8 8 9 10 10 9 9 8 8 10 10 10 12 5 4
19 21 21 21 19 18 18 18 18 19 19 19 16 16 16 15 15 14 14 14 14 14 13 12 11 10 9 9 8 7 7 9 10 10 9 9 8 6 7 8 5 5 3
21 22 21 20 19 18 18 18 18 19 18 17 13 12 12 11 11 12 12 12 12 11 9 8 7 6 6 6 6 6 6 7 8 9 8 8 7 4 2 5 6 4 3
20 19 21 19 18 18 18 18 18 17 14 14 12 11 9 9 9 9 9 8 8 7 5 4 3 2 1 1 1 3 4 5 6 7 5 5 7 6 1 2 3 3 3
21 19 20 18 18 17 17 16 15 14 12 10 9 8 8 7 7 6 5 4 4 3 2 2 3 3 2 1 1 0 1 3 6 7 8 1 2 4 3 2 4 4 3
20 18 19 17 17 16 14 13 11 10 9 8 7 6 6 5 4 4 4 3 3 2 2 2 2 3 3 3 2 2 1 3 8 5 3 5 2 3 2 2 4 4 4
21 19 17 16 16 14 12 11 10 10 8 7 5 4 4 4 4 4 4 4 4 4 4 3 2 2 2 2 2 2 2 3 6 4 10 8 6 3 3 2 4 3 4
20 19 17 16 16 14 12 10 9 8 7 5 3 3 4 5 6 6 6 5 3 3 3 3 3 3 3 2 1 1 1 2 5 3 7 12 17 2 5 5 4 5 9
21 17 15 14 14 13 12 10 8 7 6 4 4 5 7 9 8 8 5 4 3 3 4 4 3 3 2 2 3 3 3 3 4 7 10 13 15 6 4 8 6 9 10
16 16 14 6 12 12 9 7 6 5 5 5 6 9 8 8 9 8 8 6 5 6 5 3 6 5 3 2 6 8 3 3 2 6 8 11 6 8 10 10 8 9 13
14 18 14 9 7 9 3 7 8 8 7 6 5 8 7 6 6 6 7 7 7 4 7 6 6 4 6 3 3 9 7 7 13 11 16 8 4 7 9 10 11 11 14
16 16 13 11 9 8 9 1 5 5 2 3 1 2 7 3 2 1 4 4 5 8 8 6 8 9 9 8 6 8 9 12 11 4 13 12 10 9 9 10 12 15 17
16 15 14 15 13 12 11 4 4 1 3 3 5 5 1 5 2 4 6 3 4 7 8 11 10 8 13 10 8 10 4 10 4 5 9 6 8 10 12 11 13 15 17
17 16 14 14 16 10 9 9 8 7 8 5 5 3 3 1 1 2 5 3 11 5 10 6 5 8 13 8 12 6 19 10 9 12 8 12 8 14 10 10 12 15 18
17 16 16 17 21 13 15 8 9 8 6 8 9 4 2 3 2 5 1 6 2 4 6 5 6 10 9 13 20 10 12 12 7 6 5 1 7 19 12 14 11 12 16
17 17 17 14 16 16 18 13 12 10 8 8 5 7 9 4 4 5 5 10 10 5 6 2 5 10 8 17 13 11 8 11 6 11 7 8 15 14 13 13 14 12 11
18 17 16 14 12 14 13 12 13 9 8 7 7 7 5 2 4 2 2 7 4 2 8 8 8 8 9 11 10 11 12 9 7 5 4 8 10 12 14 13 12 11 11
16 16 18 15 14 12 13 12 8 5 3 7 6 7 5 2 2 4 11 3 0 2 4 7 10 14 13 15 14 12 9 8 4 9 4 12 10 15 15 13 14 15 12
20 17 15 17 15 13 12 10 12 7 11 5 7 4 3 8 5 5 9 10 4 4 7 3 9 10 17 8 15 14 5 3 5 4 8 11 11 12 14 15 15 16 9
19 19 16 17 14 12 11 12 8 7 3 8 9 5 11 7 1 4 10 8 4 7 0 9 7 10 7 12 14 11 12 6 4 2 3 10 11 9 12 16 15 12 7
18 19 18 18 17 14 13 7 7 9 9 11 3 10 6 6 6 6 4 7 6 5 6 8 6 7 11 9 12 12 4 15 5 3 4 8 8 9 10 12 16 18 10
22 19 20 19 18 17 13 12 13 7 10 11 8 8 12 8 7 7 6 4 5 4 8 7 9 6 6 5 9 8 11 9 12 8 9 4 8 6 13 13 12 13 7
23 22 21 21 19 16 16 12 12 11 12 6 8 9 10 6 6 9 4 4 5 6 9 7 4 7 12 9 9 9 5 7 11 11 11 9 10 6 11 13 10 14 8
25 22 20 19 21 17 17 17 13 11 9 8 5 13 14 8 7 6 9 5 6 10 12 15 6 12 9 11 12 10 13 14 6 6 9 10 9 11 7 10 7 11 9
24 23 21 21 20 19 16 18 15 17 12 11 9 4 5 4 10 9 8 8 6 9 12 9 13 11 14 7 9 8 7 13 9 6 8 11 6 6 10 14 12 4 8
24 23 24 20 17 17 22 17 20 15 13 12 10 11 11 10 14 15 8 12 12 11 9 10 11 12 12 12 8 8 11 15 18 14 10 11 11 12 13 15 14 4 8
Wind_Direction
128 133 131 127 125 129 125 118 114 111 112 111 103 99 93 96 91 94 94 94 96 98 99 95 94 94 96 97 94 95 92 92 95 97 95 97 97 103 115 113 107 124 58
133 137 135 133 127 128 126 121 116 114 112 111 104 99 92 94 86 94 94 94 94 95 97 95 92 89 90 88 87 88 96 95 93 95 94 78 90 108 135 131 144 121 102
132 137 139 137 132 126 126 124 119 117 114 106 103 98 93 93 91 91 91 87 87 88 88 88 91 92 93 92 91 95 99 99 101 100 102 77 51 69 131 145 126 115 120
131 136 141 141 139 128 125 126 122 120 115 110 106 100 100 98 96 87 82 75 65 60 60 57 56 49 38 90 101 98 105 120 130 117 89 120 159 87 69 165 145 120 133
134 138 142 143 142 135 132 129 126 122 117 115 113 105 106 101 91 82 72 62 57 53 26 337 318 318 325 350 14 39 166 140 139 127 136 151 72 51 91 164 145 121 127
127 139 137 142 147 148 144 139 134 133 129 119 116 112 99 83 73 66 60 50 30 359 329 331 323 330 334 326 326 311 270 175 157 115 116 137 129 336 322 102 121 141 134
132 135 137 139 141 147 147 147 142 141 136 135 132 110 74 67 61 52 44 36 24 7 353 339 340 348 328 330 357 338 296 221 198 151 267 188 196 204 241 250 166 152 217
131 138 139 142 144 143 147 151 151 149 151 152 132 88 74 69 64 62 56 48 29 8 350 335 342 343 317 326 57 236 243 226 159 131 168 208 254 290 205 255 220 214 201
135 141 144 150 149 148 153 160 163 164 165 148 115 96 87 74 67 51 45 44 26 19 8 350 355 4 330 359 354 313 349 327 268 206 244 243 211 229 242 251 257 251 236
136 148 141 149 143 141 149 151 155 147 130 121 107 94 92 69 52 26 9 14 24 22 12 13 19 2 349 26 346 313 352 319 2 222 250 261 212 234 250 262 248 257 247
140 151 147 131 115 126 101 129 122 115 97 114 107 116 78 67 34 16 5 16 28 359 21 20 38 32 45 87 321 331 243 334 183 202 223 199 260 270 254 259 253 253 245
153 155 154 150 152 150 152 15 128 84 62 66 78 105 70 26 350 22 307 335 349 344 11 5 12 342 9 292 294 24 239 347 304 218 302 222 282 316 292 271 264 253 252
162 162 163 161 151 159 186 123 108 189 215 257 256 199 136 210 210 301 305 320 353 319 354 335 320 351 329 328 307 263 342 349 15 307 285 262 279 325 321 302 275 261 254
167 166 162 167 163 172 183 164 179 176 209 240 257 277 112 355 166 269 304 270 279 270 258 289 338 336 319 325 354 247 17 357 320 336 290 284 309 316 312 321 299 271 259
168 169 172 186 175 173 165 186 166 186 200 216 256 276 172 253 290 285 283 309 251 18 21 301 313 322 7 327 0 335 334 356 307 327 330 296 333 333 330 333 308 283 269
172 173 181 199 193 185 176 181 178 162 213 204 230 250 301 214 253 259 294 281 279 357 257 269 342 351 352 7 9 349 327 311 343 16 18 341 336 341 334 334 325 299 281
172 179 189 188 201 185 180 185 157 189 217 224 215 247 314 237 302 291 269 294 276 211 355 344 338 324 319 337 343 360 356 13 48 23 7 315 336 338 338 332 331 310 296
170 178 187 183 196 183 174 166 154 186 254 254 211 246 264 338 45 300 284 200 83 189 300 345 2 16 353 348 354 5 349 332 1 334 356 348 341 328 331 326 316 316 305
172 172 182 181 207 182 179 173 175 191 220 225 247 231 188 236 220 312 305 331 322 312 289 62 28 7 346 336 348 357 341 323 5 326 322 25 2 338 331 326 326 324 321
176 174 175 178 191 201 204 175 199 222 212 232 238 246 289 253 77 230 276 286 318 326 353 348 10 359 353 355 347 336 326 233 275 55 45 355 2 354 335 321 322 330 309
177 177 182 177 193 191 204 192 185 205 219 241 237 222 274 289 296 310 279 227 330 286 322 329 10 328 355 342 358 359 41 65 239 189 326 9 348 344 334 310 313 327 311
184 188 189 188 206 196 190 197 215 228 237 240 235 221 253 230 253 263 268 299 294 328 311 313 326 349 312 346 341 3 12 21 45 3 339 329 312 356 342 327 326 323 323
187 192 203 195 210 205 188 212 232 217 226 225 226 228 246 253 260 265 274 286 302 310 306 238 247 324 334 4 349 341 360 12 354 349 325 298 303 309 345 350 337 337 356
189 197 206 213 206 221 194 198 215 227 220 231 229 247 247 241 246 241 273 300 326 308 294 319 17 332 326 339 341 338 348 332 324 343 7 323 307 305 336 356 337 336 350
196 197 205 221 221 209 226 204 216 223 223 240 229 231 215 201 265 246 240 267 287 305 303 324 306 313 330 320 307 332 329 334 268 223 1 349 317 300 325 357 333 350 321
199 200 204 216 227 218 219 218 203 226 221 215 225 244 245 267 267 272 238 240 264 278 287 288 284 299 311 313 320 332 323 326 316 328 21 339 325 273 306 338 333 350 309
Height
1541 1542 1544 1546 1548 1550 1552 1553 1555 1556 1557 1559 1560 1561 1562 1564 1564 1565 1566 1566 1566 1566 1567 1567 1567 1567 1566 1566 1566 1566 1566 1566 1566 1566 1567 1568 1570 1570 1570 1571 1572 1574 1576
1541 1543 1546 1548 1550 1552 1554 1555 1557 1558 1560 1561 1563 1564 1564 1565 1566 1567 1567 1568 1568 1569 1569 1569 1568 1568 1567 1566 1566 1566 1566 1566 1566 1567 1568 1569 1571 1572 1572 1573 1575 1576 1577
1542 1544 1547 1550 1552 1554 1555 1557 1559 1560 1562 1563 1565 1566 1566 1567 1568 1569 1569 1570 1571 1571 1571 1571 1570 1569 1568 1567 1567 1566 1567 1567 1567 1568 1568 1569 1572 1574 1575 1575 1576 1577 1579
1544 1546 1548 1551 1554 1555 1557 1559 1560 1562 1564 1565 1567 1568 1568 1569 1570 1571 1571 1572 1571 1571 1571 1570 1569 1569 1569 1569 1569 1569 1568 1567 1567 1568 1569 1572 1571 1570 1575 1575 1576 1577 1579
1547 1549 1550 1552 1555 1557 1559 1561 1562 1564 1565 1567 1568 1569 1569 1570 1571 1571 1571 1571 1571 1570 1569 1568 1567 1567 1569 1570 1570 1570 1568 1568 1568 1568 1569 1569 1568 1573 1574 1575 1575 1576 1578
1548 1549 1551 1553 1556 1558 1560 1562 1564 1565 1566 1567 1568 1569 1571 1571 1571 1571 1571 1570 1570 1569 1567 1567 1567 1568 1569 1568 1567 1568 1568 1568 1569 1571 1571 1572 1571 1575 1576 1574 1573 1574 1576
1549 1550 1552 1555 1557 1559 1561 1563 1565 1566 1567 1568 1569 1570 1572 1571 1571 1571 1570 1570 1569 1568 1568 1568 1567 1568 1567 1567 1569 1568 1568 1569 1569 1568 1571 1573 1572 1567 1572 1573 1572 1571 1574
1548 1552 1554 1556 1558 1560 1562 1564 1565 1567 1568 1569 1570 1571 1572 1571 1571 1571 1571 1570 1568 1566 1566 1565 1565 1567 1565 1565 1565 1564 1565 1568 1569 1569 1574 1571 1573 1570 1568 1571 1569 1571 1572
1550 1553 1555 1557 1559 1561 1563 1565 1566 1567 1568 1569 1570 1571 1571 1571 1571 1572 1571 1568 1567 1566 1565 1564 1564 1565 1565 1568 1567 1563 1563 1567 1566 1566 1568 1570 1569 1567 1565 1567 1567 1568 1570
1551 1553 1555 1558 1560 1562 1564 1566 1567 1567 1568 1569 1570 1571 1571 1571 1571 1571 1569 1567 1567 1567 1565 1562 1564 1563 1567 1572 1568 1568 1567 1566 1569 1571 1571 1567 1568 1565 1564 1564 1565 1565 1567
1554 1555 1556 1558 1560 1562 1564 1566 1567 1568 1568 1569 1570 1571 1570 1571 1571 1571 1570 1569 1570 1567 1565 1563 1562 1562 1565 1568 1567 1566 1565 1558 1556 1553 1563 1566 1568 1564 1562 1561 1562 1562 1563
1554 1557 1559 1560 1561 1563 1564 1566 1567 1568 1568 1568 1569 1570 1569 1570 1572 1572 1570 1570 1569 1567 1565 1563 1563 1562 1564 1567 1567 1560 1552 1550 1541 1554 1556 1564 1564 1561 1559 1558 1559 1559 1560
1553 1556 1558 1560 1563 1565 1565 1566 1566 1567 1568 1568 1569 1569 1569 1571 1571 1571 1570 1570 1565 1561 1561 1563 1563 1564 1564 1564 1554 1558 1557 1528 1548 1554 1560 1561 1561 1558 1557 1555 1555 1557 1558
1552 1554 1557 1559 1562 1565 1565 1567 1569 1570 1569 1568 1567 1569 1569 1569 1569 1571 1572 1570 1562 1558 1560 1564 1564 1565 1564 1563 1561 1559 1554 1552 1554 1557 1558 1556 1557 1554 1553 1553 1553 1553 1555
1551 1553 1556 1556 1560 1561 1564 1566 1567 1568 1568 1568 1567 1568 1570 1570 1572 1573 1572 1565 1556 1559 1559 1565 1565 1564 1563 1560 1555 1558 1558 1558 1556 1557 1553 1554 1553 1551 1551 1551 1551 1552 1552
1549 1552 1553 1554 1557 1559 1562 1563 1565 1567 1567 1567 1567 1570 1572 1572 1572 1571 1571 1569 1565 1562 1565 1564 1566 1564 1561 1558 1558 1557 1556 1556 1555 1554 1552 1551 1551 1549 1549 1550 1550 1550 1549
1548 1551 1552 1554 1555 1557 1559 1561 1563 1566 1566 1567 1569 1571 1571 1572 1572 1571 1570 1564 1561 1565 1569 1567 1567 1565 1562 1558 1553 1552 1553 1553 1553 1552 1551 1550 1549 1549 1549 1549 1549 1548 1547
1546 1549 1551 1554 1555 1555 1558 1560 1562 1565 1565 1567 1568 1569 1570 1569 1569 1568 1562 1563 1562 1567 1573 1573 1571 1569 1563 1561 1554 1551 1552 1552 1552 1552 1551 1549 1549 1548 1549 1549 1548 1547 1545
1544 1548 1550 1554 1554 1555 1557 1559 1561 1563 1564 1566 1567 1567 1567 1567 1566 1567 1566 1566 1567 1569 1574 1574 1573 1566 1562 1558 1553 1553 1553 1551 1550 1550 1548 1549 1550 1550 1549 1548 1546 1545 1543
1542 1546 1550 1553 1554 1556 1557 1558 1560 1562 1564 1565 1566 1567 1565 1565 1562 1564 1569 1569 1571 1572 1574 1573 1569 1566 1561 1562 1558 1555 1553 1550 1549 1549 1546 1547 1548 1548 1549 1547 1544 1544 1542
1542 1545 1549 1552 1553 1555 1557 1558 1560 1561 1562 1564 1564 1566 1562 1565 1562 1563 1567 1567 1572 1571 1572 1571 1571 1570 1565 1565 1561 1555 1552 1550 1549 1547 1547 1548 1547 1547 1547 1547 1546 1542 1540
1540 1544 1547 1550 1551 1553 1555 1557 1559 1560 1561 1562 1563 1564 1564 1564 1563 1567 1567 1569 1569 1570 1563 1561 1566 1568 1566 1565 1563 1560 1553 1551 1549 1550 1548 1548 1548 1547 1545 1545 1544 1542 1538
1537 1541 1544 1547 1549 1551 1554 1556 1557 1557 1558 1559 1561 1562 1562 1562 1564 1566 1568 1569 1568 1566 1560 1557 1553 1562 1561 1561 1562 1559 1553 1550 1549 1550 1550 1548 1547 1545 1544 1542 1541 1541 1539
1534 1538 1542 1544 1547 1549 1551 1553 1555 1556 1557 1558 1559 1560 1561 1560 1561 1563 1565 1566 1566 1563 1558 1547 1554 1559 1560 1559 1559 1555 1552 1550 1549 1549 1549 1548 1546 1543 1543 1541 1540 1539 1538
1532 1535 1538 1541 1544 1547 1548 1551 1554 1555 1556 1557 1558 1558 1560 1559 1559 1559 1561 1561 1562 1561 1559 1558 1558 1557 1559 1559 1556 1554 1550 1548 1542 1539 1541 1548 1546 1542 1541 1540 1537 1538 1537
1528 1532 1534 1537 1540 1543 1545 1547 1550 1552 1554 1556 1557 1557 1557 1557 1555 1555 1557 1559 1559 1560 1560 1560 1559 1560 1558 1557 1554 1551 1549 1547 1541 1524 1533 1544 1546 1540 1539 1538 1536 1535 1535